Data supplied by UK-AIR on 8/9/2015
All Data GMT hour ending 
Status: R =Ratified P=Provisional,P*=As supplied
,,London Harrow Stanmore,,,,,,,,,,,,,,,,,,,,,,,
Date,time,"Non-volatile PM<sub>2.5</sub> (Hourly measured)",status,unit,"PM<sub>2.5</sub> particulate matter (Hourly measured)",status,unit,"Volatile PM<sub>2.5</sub> (Hourly measured)",status,unit
 
01-01-2012,01:00,13.000,R,ugm-3 (TEOM FDMS),13.000,R,ugm-3 (TEOM FDMS),0.000,R,ugm-3 (TEOM FDMS)
01-01-2012,02:00,2.000,R,ugm-3 (TEOM FDMS),1.000,R,ugm-3 (TEOM FDMS),-1.000,R,ugm-3 (TEOM FDMS)
01-01-2012,03:00,-1.000,R,ugm-3 (TEOM FDMS),0.000,R,ugm-3 (TEOM FDMS),1.000,R,ugm-3 (TEOM FDMS)
01-01-2012,04:00,-2.000,R,ugm-3 (TEOM FDMS),1.000,R,ugm-3 (TEOM FDMS),3.000,R,ugm-3 (TEOM FDMS)
01-01-2012,05:00,0.000,R,ugm-3 (TEOM FDMS),1.000,R,ugm-3 (TEOM FDMS),1.000,R,ugm-3 (TEOM FDMS)
01-01-2012,06:00,2.000,R,ugm-3 (TEOM FDMS),6.000,R,ugm-3 (TEOM FDMS),4.000,R,ugm-3 (TEOM FDMS)
01-01-2012,07:00,1.000,R,ugm-3 (TEOM FDMS),4.000,R,ugm-3 (TEOM FDMS),3.000,R,ugm-3 (TEOM FDMS)
01-01-2012,08:00,1.000,R,ugm-3 (TEOM FDMS),2.000,R,ugm-3 (TEOM FDMS),1.000,R,ugm-3 (TEOM FDMS)
01-01-2012,09:00,2.000,R,ugm-3 (TEOM FDMS),4.000,R,ugm-3 (TEOM FDMS),2.000,R,ugm-3 (TEOM FDMS)
01-01-2012,10:00,5.000,R,ugm-3 (TEOM FDMS),6.000,R,ugm-3 (TEOM FDMS),1.000,R,ugm-3 (TEOM FDMS)
01-01-2012,11:00,4.000,R,ugm-3 (TEOM FDMS),8.000,R,ugm-3 (TEOM FDMS),4.000,R,ugm-3 (TEOM FDMS)
01-01-2012,12:00,2.000,R,ugm-3 (TEOM FDMS),6.000,R,ugm-3 (TEOM FDMS),4.000,R,ugm-3 (TEOM FDMS)
01-01-2012,13:00,1.000,R,ugm-3 (TEOM FDMS),5.000,R,ugm-3 (TEOM FDMS),4.000,R,ugm-3 (TEOM FDMS)
01-01-2012,14:00,3.000,R,ugm-3 (TEOM FDMS),9.000,R,ugm-3 (TEOM FDMS),6.000,R,ugm-3 (TEOM FDMS)
01-01-2012,15:00,5.000,R,ugm-3 (TEOM FDMS),11.000,R,ugm-3 (TEOM FDMS),6.000,R,ugm-3 (TEOM FDMS)
01-01-2012,16:00,2.000,R,ugm-3 (TEOM FDMS),7.000,R,ugm-3 (TEOM FDMS),5.000,R,ugm-3 (TEOM FDMS)
01-01-2012,17:00,5.000,R,ugm-3 (TEOM FDMS),7.000,R,ugm-3 (TEOM FDMS),2.000,R,ugm-3 (TEOM FDMS)
01-01-2012,18:00,8.000,R,ugm-3 (TEOM FDMS),8.000,R,ugm-3 (TEOM FDMS),0.000,R,ugm-3 (TEOM FDMS)
01-01-2012,19:00,5.000,R,ugm-3 (TEOM FDMS),6.000,R,ugm-3 (TEOM FDMS),1.000,R,ugm-3 (TEOM FDMS)
01-01-2012,20:00,4.000,R,ugm-3 (TEOM FDMS),4.000,R,ugm-3 (TEOM FDMS),0.000,R,ugm-3 (TEOM FDMS)
01-01-2012,21:00,3.000,R,ugm-3 (TEOM FDMS),4.000,R,ugm-3 (TEOM FDMS),1.000,R,ugm-3 (TEOM FDMS)
01-01-2012,22:00,3.000,R,ugm-3 (TEOM FDMS),5.000,R,ugm-3 (TEOM FDMS),2.000,R,ugm-3 (TEOM FDMS)
01-01-2012,23:00,3.000,R,ugm-3 (TEOM FDMS),6.000,R,ugm-3 (TEOM FDMS),3.000,R,ugm-3 (TEOM FDMS)
01-01-2012,24:00,3.000,R,ugm-3 (TEOM FDMS),4.000,R,ugm-3 (TEOM FDMS),1.000,R,ugm-3 (TEOM FDMS)
02-01-2012,01:00,3.000,R,ugm-3 (TEOM FDMS),6.000,R,ugm-3 (TEOM FDMS),3.000,R,ugm-3 (TEOM FDMS)
02-01-2012,02:00,1.000,R,ugm-3 (TEOM FDMS),1.000,R,ugm-3 (TEOM FDMS),0.000,R,ugm-3 (TEOM FDMS)
02-01-2012,03:00,3.000,R,ugm-3 (TEOM FDMS),4.000,R,ugm-3 (TEOM FDMS),1.000,R,ugm-3 (TEOM FDMS)
02-01-2012,04:00,2.000,R,ugm-3 (TEOM FDMS),4.000,R,ugm-3 (TEOM FDMS),2.000,R,ugm-3 (TEOM FDMS)
02-01-2012,05:00,3.000,R,ugm-3 (TEOM FDMS),7.000,R,ugm-3 (TEOM FDMS),4.000,R,ugm-3 (TEOM FDMS)
02-01-2012,06:00,2.000,R,ugm-3 (TEOM FDMS),2.000,R,ugm-3 (TEOM FDMS),0.000,R,ugm-3 (TEOM FDMS)
02-01-2012,07:00,2.000,R,ugm-3 (TEOM FDMS),6.000,R,ugm-3 (TEOM FDMS),4.000,R,ugm-3 (TEOM FDMS)
02-01-2012,08:00,3.000,R,ugm-3 (TEOM FDMS),4.000,R,ugm-3 (TEOM FDMS),1.000,R,ugm-3 (TEOM FDMS)
02-01-2012,09:00,5.000,R,ugm-3 (TEOM FDMS),4.000,R,ugm-3 (TEOM FDMS),-1.000,R,ugm-3 (TEOM FDMS)
02-01-2012,10:00,3.000,R,ugm-3 (TEOM FDMS),2.000,R,ugm-3 (TEOM FDMS),-1.000,R,ugm-3 (TEOM FDMS)
02-01-2012,11:00,3.000,R,ugm-3 (TEOM FDMS),3.000,R,ugm-3 (TEOM FDMS),0.000,R,ugm-3 (TEOM FDMS)
02-01-2012,12:00,2.000,R,ugm-3 (TEOM FDMS),3.000,R,ugm-3 (TEOM FDMS),1.000,R,ugm-3 (TEOM FDMS)
02-01-2012,13:00,3.000,R,ugm-3 (TEOM FDMS),6.000,R,ugm-3 (TEOM FDMS),3.000,R,ugm-3 (TEOM FDMS)
02-01-2012,14:00,3.000,R,ugm-3 (TEOM FDMS),5.000,R,ugm-3 (TEOM FDMS),2.000,R,ugm-3 (TEOM FDMS)
02-01-2012,15:00,3.000,R,ugm-3 (TEOM FDMS),3.000,R,ugm-3 (TEOM FDMS),0.000,R,ugm-3 (TEOM FDMS)
02-01-2012,16:00,4.000,R,ugm-3 (TEOM FDMS),6.000,R,ugm-3 (TEOM FDMS),2.000,R,ugm-3 (TEOM FDMS)
02-01-2012,17:00,4.000,R,ugm-3 (TEOM FDMS),7.000,R,ugm-3 (TEOM FDMS),3.000,R,ugm-3 (TEOM FDMS)
02-01-2012,18:00,4.000,R,ugm-3 (TEOM FDMS),6.000,R,ugm-3 (TEOM FDMS),2.000,R,ugm-3 (TEOM FDMS)
02-01-2012,19:00,4.000,R,ugm-3 (TEOM FDMS),5.000,R,ugm-3 (TEOM FDMS),1.000,R,ugm-3 (TEOM FDMS)
02-01-2012,20:00,6.000,R,ugm-3 (TEOM FDMS),8.000,R,ugm-3 (TEOM FDMS),2.000,R,ugm-3 (TEOM FDMS)
02-01-2012,21:00,5.000,R,ugm-3 (TEOM FDMS),6.000,R,ugm-3 (TEOM FDMS),1.000,R,ugm-3 (TEOM FDMS)
02-01-2012,22:00,4.000,R,ugm-3 (TEOM FDMS),8.000,R,ugm-3 (TEOM FDMS),4.000,R,ugm-3 (TEOM FDMS)
02-01-2012,23:00,6.000,R,ugm-3 (TEOM FDMS),8.000,R,ugm-3 (TEOM FDMS),2.000,R,ugm-3 (TEOM FDMS)
02-01-2012,24:00,4.000,R,ugm-3 (TEOM FDMS),8.000,R,ugm-3 (TEOM FDMS),4.000,R,ugm-3 (TEOM FDMS)
03-01-2012,01:00,4.000,R,ugm-3 (TEOM FDMS),10.000,R,ugm-3 (TEOM FDMS),6.000,R,ugm-3 (TEOM FDMS)
03-01-2012,02:00,3.000,R,ugm-3 (TEOM FDMS),8.000,R,ugm-3 (TEOM FDMS),5.000,R,ugm-3 (TEOM FDMS)
03-01-2012,03:00,0.000,R,ugm-3 (TEOM FDMS),2.000,R,ugm-3 (TEOM FDMS),2.000,R,ugm-3 (TEOM FDMS)
03-01-2012,04:00,-1.000,R,ugm-3 (TEOM FDMS),4.000,R,ugm-3 (TEOM FDMS),5.000,R,ugm-3 (TEOM FDMS)
03-01-2012,05:00,-1.000,R,ugm-3 (TEOM FDMS),6.000,R,ugm-3 (TEOM FDMS),7.000,R,ugm-3 (TEOM FDMS)
03-01-2012,06:00,2.000,R,ugm-3 (TEOM FDMS),2.000,R,ugm-3 (TEOM FDMS),0.000,R,ugm-3 (TEOM FDMS)
03-01-2012,07:00,1.000,R,ugm-3 (TEOM FDMS),2.000,R,ugm-3 (TEOM FDMS),1.000,R,ugm-3 (TEOM FDMS)
03-01-2012,08:00,3.000,R,ugm-3 (TEOM FDMS),4.000,R,ugm-3 (TEOM FDMS),1.000,R,ugm-3 (TEOM FDMS)
03-01-2012,09:00,1.000,R,ugm-3 (TEOM FDMS),6.000,R,ugm-3 (TEOM FDMS),5.000,R,ugm-3 (TEOM FDMS)
03-01-2012,10:00,2.000,R,ugm-3 (TEOM FDMS),9.000,R,ugm-3 (TEOM FDMS),7.000,R,ugm-3 (TEOM FDMS)
03-01-2012,11:00,3.000,R,ugm-3 (TEOM FDMS),9.000,R,ugm-3 (TEOM FDMS),6.000,R,ugm-3 (TEOM FDMS)
03-01-2012,12:00,13.000,R,ugm-3 (TEOM FDMS),15.000,R,ugm-3 (TEOM FDMS),2.000,R,ugm-3 (TEOM FDMS)
03-01-2012,13:00,-2.000,R,ugm-3 (TEOM FDMS),4.000,R,ugm-3 (TEOM FDMS),6.000,R,ugm-3 (TEOM FDMS)
03-01-2012,14:00,3.000,R,ugm-3 (TEOM FDMS),1.000,R,ugm-3 (TEOM FDMS),-2.000,R,ugm-3 (TEOM FDMS)
03-01-2012,15:00,5.000,R,ugm-3 (TEOM FDMS),5.000,R,ugm-3 (TEOM FDMS),0.000,R,ugm-3 (TEOM FDMS)
03-01-2012,16:00,8.000,R,ugm-3 (TEOM FDMS),5.000,R,ugm-3 (TEOM FDMS),-3.000,R,ugm-3 (TEOM FDMS)
03-01-2012,17:00,1.000,R,ugm-3 (TEOM FDMS),1.000,R,ugm-3 (TEOM FDMS),0.000,R,ugm-3 (TEOM FDMS)
03-01-2012,18:00,4.000,R,ugm-3 (TEOM FDMS),2.000,R,ugm-3 (TEOM FDMS),-2.000,R,ugm-3 (TEOM FDMS)
03-01-2012,19:00,5.000,R,ugm-3 (TEOM FDMS),7.000,R,ugm-3 (TEOM FDMS),2.000,R,ugm-3 (TEOM FDMS)
03-01-2012,20:00,6.000,R,ugm-3 (TEOM FDMS),8.000,R,ugm-3 (TEOM FDMS),2.000,R,ugm-3 (TEOM FDMS)
03-01-2012,21:00,6.000,R,ugm-3 (TEOM FDMS),8.000,R,ugm-3 (TEOM FDMS),2.000,R,ugm-3 (TEOM FDMS)
03-01-2012,22:00,6.000,R,ugm-3 (TEOM FDMS),8.000,R,ugm-3 (TEOM FDMS),2.000,R,ugm-3 (TEOM FDMS)
03-01-2012,23:00,7.000,R,ugm-3 (TEOM FDMS),9.000,R,ugm-3 (TEOM FDMS),2.000,R,ugm-3 (TEOM FDMS)
03-01-2012,24:00,8.000,R,ugm-3 (TEOM FDMS),7.000,R,ugm-3 (TEOM FDMS),-1.000,R,ugm-3 (TEOM FDMS)
04-01-2012,01:00,8.000,R,ugm-3 (TEOM FDMS),8.000,R,ugm-3 (TEOM FDMS),0.000,R,ugm-3 (TEOM FDMS)
04-01-2012,02:00,8.000,R,ugm-3 (TEOM FDMS),8.000,R,ugm-3 (TEOM FDMS),0.000,R,ugm-3 (TEOM FDMS)
04-01-2012,03:00,7.000,R,ugm-3 (TEOM FDMS),7.000,R,ugm-3 (TEOM FDMS),0.000,R,ugm-3 (TEOM FDMS)
04-01-2012,04:00,8.000,R,ugm-3 (TEOM FDMS),7.000,R,ugm-3 (TEOM FDMS),-1.000,R,ugm-3 (TEOM FDMS)
04-01-2012,05:00,5.000,R,ugm-3 (TEOM FDMS),3.000,R,ugm-3 (TEOM FDMS),-2.000,R,ugm-3 (TEOM FDMS)
04-01-2012,06:00,8.000,R,ugm-3 (TEOM FDMS),9.000,R,ugm-3 (TEOM FDMS),1.000,R,ugm-3 (TEOM FDMS)
04-01-2012,07:00,5.000,R,ugm-3 (TEOM FDMS),6.000,R,ugm-3 (TEOM FDMS),1.000,R,ugm-3 (TEOM FDMS)
04-01-2012,08:00,7.000,R,ugm-3 (TEOM FDMS),6.000,R,ugm-3 (TEOM FDMS),-1.000,R,ugm-3 (TEOM FDMS)
04-01-2012,09:00,6.000,R,ugm-3 (TEOM FDMS),5.000,R,ugm-3 (TEOM FDMS),-1.000,R,ugm-3 (TEOM FDMS)
04-01-2012,10:00,8.000,R,ugm-3 (TEOM FDMS),10.000,R,ugm-3 (TEOM FDMS),2.000,R,ugm-3 (TEOM FDMS)
04-01-2012,11:00,7.000,R,ugm-3 (TEOM FDMS),7.000,R,ugm-3 (TEOM FDMS),0.000,R,ugm-3 (TEOM FDMS)
04-01-2012,12:00,0.000,R,ugm-3 (TEOM FDMS),0.000,R,ugm-3 (TEOM FDMS),0.000,R,ugm-3 (TEOM FDMS)
04-01-2012,13:00,6.000,R,ugm-3 (TEOM FDMS),7.000,R,ugm-3 (TEOM FDMS),1.000,R,ugm-3 (TEOM FDMS)
04-01-2012,14:00,5.000,R,ugm-3 (TEOM FDMS),12.000,R,ugm-3 (TEOM FDMS),7.000,R,ugm-3 (TEOM FDMS)
04-01-2012,15:00,5.000,R,ugm-3 (TEOM FDMS),10.000,R,ugm-3 (TEOM FDMS),5.000,R,ugm-3 (TEOM FDMS)
04-01-2012,16:00,4.000,R,ugm-3 (TEOM FDMS),8.000,R,ugm-3 (TEOM FDMS),4.000,R,ugm-3 (TEOM FDMS)
04-01-2012,17:00,3.000,R,ugm-3 (TEOM FDMS),8.000,R,ugm-3 (TEOM FDMS),5.000,R,ugm-3 (TEOM FDMS)
04-01-2012,18:00,5.000,R,ugm-3 (TEOM FDMS),13.000,R,ugm-3 (TEOM FDMS),8.000,R,ugm-3 (TEOM FDMS)
04-01-2012,19:00,2.000,R,ugm-3 (TEOM FDMS),8.000,R,ugm-3 (TEOM FDMS),6.000,R,ugm-3 (TEOM FDMS)
04-01-2012,20:00,2.000,R,ugm-3 (TEOM FDMS),11.000,R,ugm-3 (TEOM FDMS),9.000,R,ugm-3 (TEOM FDMS)
04-01-2012,21:00,0.000,R,ugm-3 (TEOM FDMS),4.000,R,ugm-3 (TEOM FDMS),4.000,R,ugm-3 (TEOM FDMS)
04-01-2012,22:00,0.000,R,ugm-3 (TEOM FDMS),10.000,R,ugm-3 (TEOM FDMS),10.000,R,ugm-3 (TEOM FDMS)
04-01-2012,23:00,0.000,R,ugm-3 (TEOM FDMS),7.000,R,ugm-3 (TEOM FDMS),7.000,R,ugm-3 (TEOM FDMS)
04-01-2012,24:00,0.000,R,ugm-3 (TEOM FDMS),6.000,R,ugm-3 (TEOM FDMS),6.000,R,ugm-3 (TEOM FDMS)
05-01-2012,01:00,4.000,R,ugm-3 (TEOM FDMS),8.000,R,ugm-3 (TEOM FDMS),4.000,R,ugm-3 (TEOM FDMS)
05-01-2012,02:00,8.000,R,ugm-3 (TEOM FDMS),17.000,R,ugm-3 (TEOM FDMS),9.000,R,ugm-3 (TEOM FDMS)
05-01-2012,03:00,4.000,R,ugm-3 (TEOM FDMS),9.000,R,ugm-3 (TEOM FDMS),5.000,R,ugm-3 (TEOM FDMS)
05-01-2012,04:00,6.000,R,ugm-3 (TEOM FDMS),11.000,R,ugm-3 (TEOM FDMS),5.000,R,ugm-3 (TEOM FDMS)
05-01-2012,05:00,2.000,R,ugm-3 (TEOM FDMS),5.000,R,ugm-3 (TEOM FDMS),3.000,R,ugm-3 (TEOM FDMS)
05-01-2012,06:00,4.000,R,ugm-3 (TEOM FDMS),7.000,R,ugm-3 (TEOM FDMS),3.000,R,ugm-3 (TEOM FDMS)
05-01-2012,07:00,1.000,R,ugm-3 (TEOM FDMS),1.000,R,ugm-3 (TEOM FDMS),0.000,R,ugm-3 (TEOM FDMS)
05-01-2012,08:00,3.000,R,ugm-3 (TEOM FDMS),0.000,R,ugm-3 (TEOM FDMS),-3.000,R,ugm-3 (TEOM FDMS)
05-01-2012,09:00,3.000,R,ugm-3 (TEOM FDMS),7.000,R,ugm-3 (TEOM FDMS),4.000,R,ugm-3 (TEOM FDMS)
05-01-2012,10:00,10.000,R,ugm-3 (TEOM FDMS),13.000,R,ugm-3 (TEOM FDMS),3.000,R,ugm-3 (TEOM FDMS)
05-01-2012,11:00,11.000,R,ugm-3 (TEOM FDMS),15.000,R,ugm-3 (TEOM FDMS),4.000,R,ugm-3 (TEOM FDMS)
05-01-2012,12:00,8.000,R,ugm-3 (TEOM FDMS),7.000,R,ugm-3 (TEOM FDMS),-1.000,R,ugm-3 (TEOM FDMS)
05-01-2012,13:00,9.000,R,ugm-3 (TEOM FDMS),10.000,R,ugm-3 (TEOM FDMS),1.000,R,ugm-3 (TEOM FDMS)
05-01-2012,14:00,11.000,R,ugm-3 (TEOM FDMS),10.000,R,ugm-3 (TEOM FDMS),-1.000,R,ugm-3 (TEOM FDMS)
05-01-2012,15:00,8.000,R,ugm-3 (TEOM FDMS),4.000,R,ugm-3 (TEOM FDMS),-4.000,R,ugm-3 (TEOM FDMS)
05-01-2012,16:00,9.000,R,ugm-3 (TEOM FDMS),7.000,R,ugm-3 (TEOM FDMS),-2.000,R,ugm-3 (TEOM FDMS)
05-01-2012,17:00,7.000,R,ugm-3 (TEOM FDMS),4.000,R,ugm-3 (TEOM FDMS),-3.000,R,ugm-3 (TEOM FDMS)
05-01-2012,18:00,10.000,R,ugm-3 (TEOM FDMS),13.000,R,ugm-3 (TEOM FDMS),3.000,R,ugm-3 (TEOM FDMS)
05-01-2012,19:00,8.000,R,ugm-3 (TEOM FDMS),8.000,R,ugm-3 (TEOM FDMS),0.000,R,ugm-3 (TEOM FDMS)
05-01-2012,20:00,7.000,R,ugm-3 (TEOM FDMS),9.000,R,ugm-3 (TEOM FDMS),2.000,R,ugm-3 (TEOM FDMS)
05-01-2012,21:00,7.000,R,ugm-3 (TEOM FDMS),8.000,R,ugm-3 (TEOM FDMS),1.000,R,ugm-3 (TEOM FDMS)
05-01-2012,22:00,7.000,R,ugm-3 (TEOM FDMS),6.000,R,ugm-3 (TEOM FDMS),-1.000,R,ugm-3 (TEOM FDMS)
05-01-2012,23:00,7.000,R,ugm-3 (TEOM FDMS),7.000,R,ugm-3 (TEOM FDMS),0.000,R,ugm-3 (TEOM FDMS)
05-01-2012,24:00,7.000,R,ugm-3 (TEOM FDMS),8.000,R,ugm-3 (TEOM FDMS),1.000,R,ugm-3 (TEOM FDMS)
06-01-2012,01:00,7.000,R,ugm-3 (TEOM FDMS),7.000,R,ugm-3 (TEOM FDMS),0.000,R,ugm-3 (TEOM FDMS)
06-01-2012,02:00,7.000,R,ugm-3 (TEOM FDMS),7.000,R,ugm-3 (TEOM FDMS),0.000,R,ugm-3 (TEOM FDMS)
06-01-2012,03:00,6.000,R,ugm-3 (TEOM FDMS),9.000,R,ugm-3 (TEOM FDMS),3.000,R,ugm-3 (TEOM FDMS)
06-01-2012,04:00,6.000,R,ugm-3 (TEOM FDMS),9.000,R,ugm-3 (TEOM FDMS),3.000,R,ugm-3 (TEOM FDMS)
06-01-2012,05:00,7.000,R,ugm-3 (TEOM FDMS),7.000,R,ugm-3 (TEOM FDMS),0.000,R,ugm-3 (TEOM FDMS)
06-01-2012,06:00,5.000,R,ugm-3 (TEOM FDMS),6.000,R,ugm-3 (TEOM FDMS),1.000,R,ugm-3 (TEOM FDMS)
06-01-2012,07:00,5.000,R,ugm-3 (TEOM FDMS),6.000,R,ugm-3 (TEOM FDMS),1.000,R,ugm-3 (TEOM FDMS)
06-01-2012,08:00,7.000,R,ugm-3 (TEOM FDMS),9.000,R,ugm-3 (TEOM FDMS),2.000,R,ugm-3 (TEOM FDMS)
06-01-2012,09:00,6.000,R,ugm-3 (TEOM FDMS),9.000,R,ugm-3 (TEOM FDMS),3.000,R,ugm-3 (TEOM FDMS)
06-01-2012,10:00,10.000,R,ugm-3 (TEOM FDMS),11.000,R,ugm-3 (TEOM FDMS),1.000,R,ugm-3 (TEOM FDMS)
06-01-2012,11:00,11.000,R,ugm-3 (TEOM FDMS),11.000,R,ugm-3 (TEOM FDMS),0.000,R,ugm-3 (TEOM FDMS)
06-01-2012,12:00,9.000,R,ugm-3 (TEOM FDMS),12.000,R,ugm-3 (TEOM FDMS),3.000,R,ugm-3 (TEOM FDMS)
06-01-2012,13:00,5.000,R,ugm-3 (TEOM FDMS),8.000,R,ugm-3 (TEOM FDMS),3.000,R,ugm-3 (TEOM FDMS)
06-01-2012,14:00,8.000,R,ugm-3 (TEOM FDMS),11.000,R,ugm-3 (TEOM FDMS),3.000,R,ugm-3 (TEOM FDMS)
06-01-2012,15:00,6.000,R,ugm-3 (TEOM FDMS),10.000,R,ugm-3 (TEOM FDMS),4.000,R,ugm-3 (TEOM FDMS)
06-01-2012,16:00,9.000,R,ugm-3 (TEOM FDMS),12.000,R,ugm-3 (TEOM FDMS),3.000,R,ugm-3 (TEOM FDMS)
06-01-2012,17:00,8.000,R,ugm-3 (TEOM FDMS),12.000,R,ugm-3 (TEOM FDMS),4.000,R,ugm-3 (TEOM FDMS)
06-01-2012,18:00,11.000,R,ugm-3 (TEOM FDMS),15.000,R,ugm-3 (TEOM FDMS),4.000,R,ugm-3 (TEOM FDMS)
06-01-2012,19:00,10.000,R,ugm-3 (TEOM FDMS),13.000,R,ugm-3 (TEOM FDMS),3.000,R,ugm-3 (TEOM FDMS)
06-01-2012,20:00,10.000,R,ugm-3 (TEOM FDMS),14.000,R,ugm-3 (TEOM FDMS),4.000,R,ugm-3 (TEOM FDMS)
06-01-2012,21:00,11.000,R,ugm-3 (TEOM FDMS),12.000,R,ugm-3 (TEOM FDMS),1.000,R,ugm-3 (TEOM FDMS)
06-01-2012,22:00,8.000,R,ugm-3 (TEOM FDMS),13.000,R,ugm-3 (TEOM FDMS),5.000,R,ugm-3 (TEOM FDMS)
06-01-2012,23:00,7.000,R,ugm-3 (TEOM FDMS),10.000,R,ugm-3 (TEOM FDMS),3.000,R,ugm-3 (TEOM FDMS)
06-01-2012,24:00,6.000,R,ugm-3 (TEOM FDMS),11.000,R,ugm-3 (TEOM FDMS),5.000,R,ugm-3 (TEOM FDMS)
07-01-2012,01:00,3.000,R,ugm-3 (TEOM FDMS),10.000,R,ugm-3 (TEOM FDMS),7.000,R,ugm-3 (TEOM FDMS)
07-01-2012,02:00,4.000,R,ugm-3 (TEOM FDMS),6.000,R,ugm-3 (TEOM FDMS),2.000,R,ugm-3 (TEOM FDMS)
07-01-2012,03:00,5.000,R,ugm-3 (TEOM FDMS),9.000,R,ugm-3 (TEOM FDMS),4.000,R,ugm-3 (TEOM FDMS)
07-01-2012,04:00,5.000,R,ugm-3 (TEOM FDMS),7.000,R,ugm-3 (TEOM FDMS),2.000,R,ugm-3 (TEOM FDMS)
07-01-2012,05:00,3.000,R,ugm-3 (TEOM FDMS),8.000,R,ugm-3 (TEOM FDMS),5.000,R,ugm-3 (TEOM FDMS)
07-01-2012,06:00,3.000,R,ugm-3 (TEOM FDMS),5.000,R,ugm-3 (TEOM FDMS),2.000,R,ugm-3 (TEOM FDMS)
07-01-2012,07:00,6.000,R,ugm-3 (TEOM FDMS),8.000,R,ugm-3 (TEOM FDMS),2.000,R,ugm-3 (TEOM FDMS)
07-01-2012,08:00,4.000,R,ugm-3 (TEOM FDMS),6.000,R,ugm-3 (TEOM FDMS),2.000,R,ugm-3 (TEOM FDMS)
07-01-2012,09:00,4.000,R,ugm-3 (TEOM FDMS),3.000,R,ugm-3 (TEOM FDMS),-1.000,R,ugm-3 (TEOM FDMS)
07-01-2012,10:00,11.000,R,ugm-3 (TEOM FDMS),11.000,R,ugm-3 (TEOM FDMS),0.000,R,ugm-3 (TEOM FDMS)
07-01-2012,11:00,10.000,R,ugm-3 (TEOM FDMS),14.000,R,ugm-3 (TEOM FDMS),4.000,R,ugm-3 (TEOM FDMS)
07-01-2012,12:00,7.000,R,ugm-3 (TEOM FDMS),10.000,R,ugm-3 (TEOM FDMS),3.000,R,ugm-3 (TEOM FDMS)
07-01-2012,13:00,7.000,R,ugm-3 (TEOM FDMS),10.000,R,ugm-3 (TEOM FDMS),3.000,R,ugm-3 (TEOM FDMS)
07-01-2012,14:00,5.000,R,ugm-3 (TEOM FDMS),5.000,R,ugm-3 (TEOM FDMS),0.000,R,ugm-3 (TEOM FDMS)
07-01-2012,15:00,4.000,R,ugm-3 (TEOM FDMS),7.000,R,ugm-3 (TEOM FDMS),3.000,R,ugm-3 (TEOM FDMS)
07-01-2012,16:00,7.000,R,ugm-3 (TEOM FDMS),10.000,R,ugm-3 (TEOM FDMS),3.000,R,ugm-3 (TEOM FDMS)
07-01-2012,17:00,8.000,R,ugm-3 (TEOM FDMS),11.000,R,ugm-3 (TEOM FDMS),3.000,R,ugm-3 (TEOM FDMS)
07-01-2012,18:00,9.000,R,ugm-3 (TEOM FDMS),14.000,R,ugm-3 (TEOM FDMS),5.000,R,ugm-3 (TEOM FDMS)
07-01-2012,19:00,10.000,R,ugm-3 (TEOM FDMS),13.000,R,ugm-3 (TEOM FDMS),3.000,R,ugm-3 (TEOM FDMS)
07-01-2012,20:00,11.000,R,ugm-3 (TEOM FDMS),13.000,R,ugm-3 (TEOM FDMS),2.000,R,ugm-3 (TEOM FDMS)
07-01-2012,21:00,8.000,R,ugm-3 (TEOM FDMS),12.000,R,ugm-3 (TEOM FDMS),4.000,R,ugm-3 (TEOM FDMS)
07-01-2012,22:00,8.000,R,ugm-3 (TEOM FDMS),10.000,R,ugm-3 (TEOM FDMS),2.000,R,ugm-3 (TEOM FDMS)
07-01-2012,23:00,7.000,R,ugm-3 (TEOM FDMS),8.000,R,ugm-3 (TEOM FDMS),1.000,R,ugm-3 (TEOM FDMS)
07-01-2012,24:00,7.000,R,ugm-3 (TEOM FDMS),9.000,R,ugm-3 (TEOM FDMS),2.000,R,ugm-3 (TEOM FDMS)
08-01-2012,01:00,6.000,R,ugm-3 (TEOM FDMS),8.000,R,ugm-3 (TEOM FDMS),2.000,R,ugm-3 (TEOM FDMS)
08-01-2012,02:00,7.000,R,ugm-3 (TEOM FDMS),8.000,R,ugm-3 (TEOM FDMS),1.000,R,ugm-3 (TEOM FDMS)
08-01-2012,03:00,7.000,R,ugm-3 (TEOM FDMS),9.000,R,ugm-3 (TEOM FDMS),2.000,R,ugm-3 (TEOM FDMS)
08-01-2012,04:00,4.000,R,ugm-3 (TEOM FDMS),7.000,R,ugm-3 (TEOM FDMS),3.000,R,ugm-3 (TEOM FDMS)
08-01-2012,05:00,5.000,R,ugm-3 (TEOM FDMS),6.000,R,ugm-3 (TEOM FDMS),1.000,R,ugm-3 (TEOM FDMS)
08-01-2012,06:00,3.000,R,ugm-3 (TEOM FDMS),6.000,R,ugm-3 (TEOM FDMS),3.000,R,ugm-3 (TEOM FDMS)
08-01-2012,07:00,3.000,R,ugm-3 (TEOM FDMS),2.000,R,ugm-3 (TEOM FDMS),-1.000,R,ugm-3 (TEOM FDMS)
08-01-2012,08:00,5.000,R,ugm-3 (TEOM FDMS),6.000,R,ugm-3 (TEOM FDMS),1.000,R,ugm-3 (TEOM FDMS)
08-01-2012,09:00,6.000,R,ugm-3 (TEOM FDMS),7.000,R,ugm-3 (TEOM FDMS),1.000,R,ugm-3 (TEOM FDMS)
08-01-2012,10:00,6.000,R,ugm-3 (TEOM FDMS),8.000,R,ugm-3 (TEOM FDMS),2.000,R,ugm-3 (TEOM FDMS)
08-01-2012,11:00,6.000,R,ugm-3 (TEOM FDMS),7.000,R,ugm-3 (TEOM FDMS),1.000,R,ugm-3 (TEOM FDMS)
08-01-2012,12:00,8.000,R,ugm-3 (TEOM FDMS),11.000,R,ugm-3 (TEOM FDMS),3.000,R,ugm-3 (TEOM FDMS)
08-01-2012,13:00,6.000,R,ugm-3 (TEOM FDMS),7.000,R,ugm-3 (TEOM FDMS),1.000,R,ugm-3 (TEOM FDMS)
08-01-2012,14:00,8.000,R,ugm-3 (TEOM FDMS),9.000,R,ugm-3 (TEOM FDMS),1.000,R,ugm-3 (TEOM FDMS)
08-01-2012,15:00,7.000,R,ugm-3 (TEOM FDMS),9.000,R,ugm-3 (TEOM FDMS),2.000,R,ugm-3 (TEOM FDMS)
08-01-2012,16:00,9.000,R,ugm-3 (TEOM FDMS),12.000,R,ugm-3 (TEOM FDMS),3.000,R,ugm-3 (TEOM FDMS)
08-01-2012,17:00,9.000,R,ugm-3 (TEOM FDMS),12.000,R,ugm-3 (TEOM FDMS),3.000,R,ugm-3 (TEOM FDMS)
08-01-2012,18:00,11.000,R,ugm-3 (TEOM FDMS),13.000,R,ugm-3 (TEOM FDMS),2.000,R,ugm-3 (TEOM FDMS)
08-01-2012,19:00,11.000,R,ugm-3 (TEOM FDMS),14.000,R,ugm-3 (TEOM FDMS),3.000,R,ugm-3 (TEOM FDMS)
08-01-2012,20:00,14.000,R,ugm-3 (TEOM FDMS),20.000,R,ugm-3 (TEOM FDMS),6.000,R,ugm-3 (TEOM FDMS)
08-01-2012,21:00,15.000,R,ugm-3 (TEOM FDMS),17.000,R,ugm-3 (TEOM FDMS),2.000,R,ugm-3 (TEOM FDMS)
08-01-2012,22:00,16.000,R,ugm-3 (TEOM FDMS),19.000,R,ugm-3 (TEOM FDMS),3.000,R,ugm-3 (TEOM FDMS)
08-01-2012,23:00,14.000,R,ugm-3 (TEOM FDMS),17.000,R,ugm-3 (TEOM FDMS),3.000,R,ugm-3 (TEOM FDMS)
08-01-2012,24:00,15.000,R,ugm-3 (TEOM FDMS),20.000,R,ugm-3 (TEOM FDMS),5.000,R,ugm-3 (TEOM FDMS)
09-01-2012,01:00,16.000,R,ugm-3 (TEOM FDMS),21.000,R,ugm-3 (TEOM FDMS),5.000,R,ugm-3 (TEOM FDMS)
09-01-2012,02:00,11.000,R,ugm-3 (TEOM FDMS),18.000,R,ugm-3 (TEOM FDMS),7.000,R,ugm-3 (TEOM FDMS)
09-01-2012,03:00,10.000,R,ugm-3 (TEOM FDMS),15.000,R,ugm-3 (TEOM FDMS),5.000,R,ugm-3 (TEOM FDMS)
09-01-2012,04:00,11.000,R,ugm-3 (TEOM FDMS),17.000,R,ugm-3 (TEOM FDMS),6.000,R,ugm-3 (TEOM FDMS)
09-01-2012,05:00,9.000,R,ugm-3 (TEOM FDMS),14.000,R,ugm-3 (TEOM FDMS),5.000,R,ugm-3 (TEOM FDMS)
09-01-2012,06:00,4.000,R,ugm-3 (TEOM FDMS),9.000,R,ugm-3 (TEOM FDMS),5.000,R,ugm-3 (TEOM FDMS)
09-01-2012,07:00,4.000,R,ugm-3 (TEOM FDMS),7.000,R,ugm-3 (TEOM FDMS),3.000,R,ugm-3 (TEOM FDMS)
09-01-2012,08:00,6.000,R,ugm-3 (TEOM FDMS),7.000,R,ugm-3 (TEOM FDMS),1.000,R,ugm-3 (TEOM FDMS)
09-01-2012,09:00,6.000,R,ugm-3 (TEOM FDMS),8.000,R,ugm-3 (TEOM FDMS),2.000,R,ugm-3 (TEOM FDMS)
09-01-2012,10:00,8.000,R,ugm-3 (TEOM FDMS),11.000,R,ugm-3 (TEOM FDMS),3.000,R,ugm-3 (TEOM FDMS)
09-01-2012,11:00,11.000,R,ugm-3 (TEOM FDMS),15.000,R,ugm-3 (TEOM FDMS),4.000,R,ugm-3 (TEOM FDMS)
09-01-2012,12:00,8.000,R,ugm-3 (TEOM FDMS),12.000,R,ugm-3 (TEOM FDMS),4.000,R,ugm-3 (TEOM FDMS)
09-01-2012,13:00,8.000,R,ugm-3 (TEOM FDMS),12.000,R,ugm-3 (TEOM FDMS),4.000,R,ugm-3 (TEOM FDMS)
09-01-2012,14:00,7.000,R,ugm-3 (TEOM FDMS),10.000,R,ugm-3 (TEOM FDMS),3.000,R,ugm-3 (TEOM FDMS)
09-01-2012,15:00,7.000,R,ugm-3 (TEOM FDMS),10.000,R,ugm-3 (TEOM FDMS),3.000,R,ugm-3 (TEOM FDMS)
09-01-2012,16:00,10.000,R,ugm-3 (TEOM FDMS),14.000,R,ugm-3 (TEOM FDMS),4.000,R,ugm-3 (TEOM FDMS)
09-01-2012,17:00,9.000,R,ugm-3 (TEOM FDMS),11.000,R,ugm-3 (TEOM FDMS),2.000,R,ugm-3 (TEOM FDMS)
09-01-2012,18:00,8.000,R,ugm-3 (TEOM FDMS),9.000,R,ugm-3 (TEOM FDMS),1.000,R,ugm-3 (TEOM FDMS)
09-01-2012,19:00,10.000,R,ugm-3 (TEOM FDMS),11.000,R,ugm-3 (TEOM FDMS),1.000,R,ugm-3 (TEOM FDMS)
09-01-2012,20:00,10.000,R,ugm-3 (TEOM FDMS),13.000,R,ugm-3 (TEOM FDMS),3.000,R,ugm-3 (TEOM FDMS)
09-01-2012,21:00,9.000,R,ugm-3 (TEOM FDMS),10.000,R,ugm-3 (TEOM FDMS),1.000,R,ugm-3 (TEOM FDMS)
09-01-2012,22:00,11.000,R,ugm-3 (TEOM FDMS),13.000,R,ugm-3 (TEOM FDMS),2.000,R,ugm-3 (TEOM FDMS)
09-01-2012,23:00,11.000,R,ugm-3 (TEOM FDMS),14.000,R,ugm-3 (TEOM FDMS),3.000,R,ugm-3 (TEOM FDMS)
09-01-2012,24:00,12.000,R,ugm-3 (TEOM FDMS),14.000,R,ugm-3 (TEOM FDMS),2.000,R,ugm-3 (TEOM FDMS)
10-01-2012,01:00,14.000,R,ugm-3 (TEOM FDMS),19.000,R,ugm-3 (TEOM FDMS),5.000,R,ugm-3 (TEOM FDMS)
10-01-2012,02:00,10.000,R,ugm-3 (TEOM FDMS),16.000,R,ugm-3 (TEOM FDMS),6.000,R,ugm-3 (TEOM FDMS)
10-01-2012,03:00,11.000,R,ugm-3 (TEOM FDMS),16.000,R,ugm-3 (TEOM FDMS),5.000,R,ugm-3 (TEOM FDMS)
10-01-2012,04:00,9.000,R,ugm-3 (TEOM FDMS),14.000,R,ugm-3 (TEOM FDMS),5.000,R,ugm-3 (TEOM FDMS)
10-01-2012,05:00,9.000,R,ugm-3 (TEOM FDMS),15.000,R,ugm-3 (TEOM FDMS),6.000,R,ugm-3 (TEOM FDMS)
10-01-2012,06:00,7.000,R,ugm-3 (TEOM FDMS),11.000,R,ugm-3 (TEOM FDMS),4.000,R,ugm-3 (TEOM FDMS)
10-01-2012,07:00,3.000,R,ugm-3 (TEOM FDMS),8.000,R,ugm-3 (TEOM FDMS),5.000,R,ugm-3 (TEOM FDMS)
10-01-2012,08:00,4.000,R,ugm-3 (TEOM FDMS),8.000,R,ugm-3 (TEOM FDMS),4.000,R,ugm-3 (TEOM FDMS)
10-01-2012,09:00,4.000,R,ugm-3 (TEOM FDMS),8.000,R,ugm-3 (TEOM FDMS),4.000,R,ugm-3 (TEOM FDMS)
10-01-2012,10:00,5.000,R,ugm-3 (TEOM FDMS),8.000,R,ugm-3 (TEOM FDMS),3.000,R,ugm-3 (TEOM FDMS)
10-01-2012,11:00,5.000,R,ugm-3 (TEOM FDMS),9.000,R,ugm-3 (TEOM FDMS),4.000,R,ugm-3 (TEOM FDMS)
10-01-2012,12:00,4.000,R,ugm-3 (TEOM FDMS),9.000,R,ugm-3 (TEOM FDMS),5.000,R,ugm-3 (TEOM FDMS)
10-01-2012,13:00,4.000,R,ugm-3 (TEOM FDMS),8.000,R,ugm-3 (TEOM FDMS),4.000,R,ugm-3 (TEOM FDMS)
10-01-2012,14:00,4.000,R,ugm-3 (TEOM FDMS),7.000,R,ugm-3 (TEOM FDMS),3.000,R,ugm-3 (TEOM FDMS)
10-01-2012,15:00,5.000,R,ugm-3 (TEOM FDMS),9.000,R,ugm-3 (TEOM FDMS),4.000,R,ugm-3 (TEOM FDMS)
10-01-2012,16:00,5.000,R,ugm-3 (TEOM FDMS),9.000,R,ugm-3 (TEOM FDMS),4.000,R,ugm-3 (TEOM FDMS)
10-01-2012,17:00,6.000,R,ugm-3 (TEOM FDMS),10.000,R,ugm-3 (TEOM FDMS),4.000,R,ugm-3 (TEOM FDMS)
10-01-2012,18:00,6.000,R,ugm-3 (TEOM FDMS),8.000,R,ugm-3 (TEOM FDMS),2.000,R,ugm-3 (TEOM FDMS)
10-01-2012,19:00,7.000,R,ugm-3 (TEOM FDMS),10.000,R,ugm-3 (TEOM FDMS),3.000,R,ugm-3 (TEOM FDMS)
10-01-2012,20:00,7.000,R,ugm-3 (TEOM FDMS),11.000,R,ugm-3 (TEOM FDMS),4.000,R,ugm-3 (TEOM FDMS)
10-01-2012,21:00,5.000,R,ugm-3 (TEOM FDMS),9.000,R,ugm-3 (TEOM FDMS),4.000,R,ugm-3 (TEOM FDMS)
10-01-2012,22:00,5.000,R,ugm-3 (TEOM FDMS),8.000,R,ugm-3 (TEOM FDMS),3.000,R,ugm-3 (TEOM FDMS)
10-01-2012,23:00,4.000,R,ugm-3 (TEOM FDMS),8.000,R,ugm-3 (TEOM FDMS),4.000,R,ugm-3 (TEOM FDMS)
10-01-2012,24:00,3.000,R,ugm-3 (TEOM FDMS),6.000,R,ugm-3 (TEOM FDMS),3.000,R,ugm-3 (TEOM FDMS)
11-01-2012,01:00,4.000,R,ugm-3 (TEOM FDMS),5.000,R,ugm-3 (TEOM FDMS),1.000,R,ugm-3 (TEOM FDMS)
11-01-2012,02:00,6.000,R,ugm-3 (TEOM FDMS),10.000,R,ugm-3 (TEOM FDMS),4.000,R,ugm-3 (TEOM FDMS)
11-01-2012,03:00,3.000,R,ugm-3 (TEOM FDMS),6.000,R,ugm-3 (TEOM FDMS),3.000,R,ugm-3 (TEOM FDMS)
11-01-2012,04:00,1.000,R,ugm-3 (TEOM FDMS),5.000,R,ugm-3 (TEOM FDMS),4.000,R,ugm-3 (TEOM FDMS)
11-01-2012,05:00,4.000,R,ugm-3 (TEOM FDMS),7.000,R,ugm-3 (TEOM FDMS),3.000,R,ugm-3 (TEOM FDMS)
11-01-2012,06:00,1.000,R,ugm-3 (TEOM FDMS),6.000,R,ugm-3 (TEOM FDMS),5.000,R,ugm-3 (TEOM FDMS)
11-01-2012,07:00,4.000,R,ugm-3 (TEOM FDMS),5.000,R,ugm-3 (TEOM FDMS),1.000,R,ugm-3 (TEOM FDMS)